Regional Weather Roundup
Issued by NWS

Home | Current Version | Previous Version | Graphics & Text | Print | Product List | Glossary Off
Versions: 1 2 3 4 5 6 7 8 9 10 11 12 13 14 15 16 17 18 19 20 21 22 23 24 25 26 27 28 29 30 31 32 33 34 35 36 37 38 39 40 41 42 43 44 45 46 47 48 49 50

000
ASUS43 KMKX 310921
RWRWI

WISCONSIN REGIONAL WEATHER ROUNDUP
NATIONAL WEATHER SERVICE MILWAUKEE/SULLIVAN WI
400 AM CDT FRI OCT 31 2014

NOTE: "FAIR" INDICATES FEW OR NO CLOUDS BELOW 12,000 FEET WITH NO
SIGNIFICANT WEATHER AND/OR OBSTRUCTIONS TO VISIBILITY.

WIZ001-002-006>008-014>016-023>028-311000-
NORTHWEST WISCONSIN

CITY           SKY/WX    TMP DP  RH WIND       PRES   REMARKS
SUPERIOR ARPT  PTCLDY    29  17  60 N13G24    30.49R WCI  19
ASHLAND        FLURRIES  30  22  72 N22G28    30.41R WCI  17
HAYWARD        LGT SNOW  28  22  78 N10G20    30.39R WCI  19
SIREN          MOCLDY    29  17  60 N14       30.43R WCI  19
CUMBERLAND     CLOUDY    30  18  59 N16G24    30.38R WCI  19
RICE LAKE      CLOUDY    30  20  64 N15G24    30.38R WCI  19
CHETEK         CLOUDY    31  21  67 N12G25    30.36R WCI  22
LADYSMITH      MOCLDY    30  22  70 N16G24    30.34R WCI  19
EAU CLAIRE     PTCLDY    32  18  56 N15G22    30.34R WCI  22
MENOMONIE      PTCLDY    31  19  60 NW17      30.37R WCI  20
NEW RICHMOND   PTCLDY    28  17  64 N15G21    30.42R WCI  16
OSCEOLA        CLEAR     29  18  63 NW10G16   30.46S WCI  19
$$

WIZ003>005-009-010-017-018-311000-
NORTH CENTRAL WISCONSIN

CITY           SKY/WX    TMP DP  RH WIND       PRES   REMARKS
MANITOWISH WTR LGT SNOW  27  27  98 N12G18    30.27R VSB 1   WCI  17
ARBOR VITAE      N/A     31  29  90 N20       30.24R WCI  19
WOODRUFF         N/A     31  29  90 N20       30.24R WCI  19
RHINELANDER    MOCLDY    28  23  81 N12G21    30.22R WCI  18
EAGLE RIVER    PTCLDY    28  24  85 N18       30.21R WCI  15
LAND O LAKES   CLOUDY    29  25  86 N13G24    30.23R WCI  18
PHILLIPS       CLOUDY    28  23  81 N12G20    30.27R WCI  18
TOMAHAWK       LGT SNOW  29  26  88 NW12      30.24R WCI  19
MEDFORD        CLOUDY    29  23  76 N23G30    30.23R WCI  16
MERRILL        PTCLDY    30  26  83 N13G24    30.21R WCI  20
$$

WIZ029-030-035-036-043>047-311000-
CENTRAL WISCONSIN

CITY           SKY/WX    TMP DP  RH WIND       PRES   REMARKS
WAUSAU         MOCLDY    31  25  78 N15G30    30.18R WCI  20
MOSINEE        CLOUDY    32  28  86 N20G29    30.19R WCI  20
MARSHFIELD     MOCLDY    32  23  69 N21G32    30.21R WCI  20
STEVENS POINT  CLOUDY    31  26  84 N17G28    30.18R WCI  19
WAUPACA        FLURRIES  35  33  92 NW13G21   30.13R WCI  26
WAUTOMA        FLURRIES  34  30  86 N15G21    30.15R WCI  24
WISC RAPIDS    MOCLDY    33  26  75 N18G28    30.20R WCI  22
CAMP DOUGLAS   MOCLDY    33  26  76 NW17G33   30.21R WCI  22
$$

WIZ011>013-019>022-031-037>040-048>050-311000-
NORTHEAST WISCONSIN

CITY           SKY/WX    TMP DP  RH WIND       PRES   REMARKS
ANTIGO         CLOUDY    30  25  82 N26G32    30.15R WCI  16
SHAWANO        CLOUDY    38  28  66 N17G24    30.12R WCI  28
OCONTO         CLOUDY    37  29  75 N15G29    30.09R WCI  27
STURGEON BAY   CLOUDY    36  28  75 N33G47    30.04R WCI  22
GREEN BAY      CLOUDY    37  30  75 N17G30    30.08R WCI  27
MANITOWOC      MIX PCPN  36  34  93 N18G24    30.04R WCI  25
APPLETON       LGT RAIN  34  32  93 N16G24    30.09R WCI  23
CLINTONVILLE   CLOUDY    36  28  75 N15G25    30.12R WCI  26
OSHKOSH        CLOUDY    36  32  85 NW16G23   30.07R WCI  26
$$

WIZ032>034-041-042-053>061-311000-
SOUTHWEST WISCONSIN

CITY           SKY/WX    TMP DP  RH WIND       PRES   REMARKS
LA CROSSE      CLOUDY    34  21  59 N21       30.30R WCI  22
SPARTA         CLOUDY    32  22  66 NW15G21   30.27R WCI  22
VIROQUA        MOCLDY    31  21  67 NW21G28   30.23S WCI  18
BOSCOBEL       CLOUDY    35  19  52 N14G28    30.25R WCI  26
PRAIRIE DU CHI MOCLDY    34  17  48 NW17G29   30.27R WCI  23
PLATTEVILLE    PTCLDY    34  18  51 NW21G35   30.19R WCI  22
$$

WIZ056-057-062-063-064-067-068-311000-
SOUTH CENTRAL WISCONSIN

CITY           SKY/WX    TMP DP  RH WIND       PRES   REMARKS
REEDSBURG      FLURRIES  32  25  73 NW20G28   30.18S WCI  20
BARABOO/DELLS  CLOUDY    33  24  72 NW20G30   30.16R WCI  21
LONE ROCK      CLOUDY    37  23  56 NW14      30.21R WCI  28
MINERAL POINT  CLEAR     34  19  55 NW15G28   30.17R WCI  24
MADISON        CLOUDY    36  24  62 NW16G26   30.13S WCI  26
MIDDLETON      CLOUDY    37  23  58 NW22G28   30.14R WCI  25
WATERTOWN      CLOUDY    36  27  72 NW17G26   30.08S WCI  25
MONROE         CLOUDY    34  25  69 NW20G29   30.12R WCI  22
JANESVILLE     CLOUDY    37  30  75 NW20G26   30.09R WCI  27
$$

WIZ051-052-058>065-066-070>072-311000-
SOUTHEAST WISCONSIN

CITY           SKY/WX    TMP DP  RH WIND       PRES   REMARKS
MILWAUKEE      CLOUDY    39  31  72 NW20G29   30.04R WCI  29
WAUKESHA       CLOUDY    34  30  86 NW21G28   30.06S WCI  22
MILWAUKEE/TIMM CLOUDY    36  32  87 NW14      30.05S WCI  27
RACINE         CLOUDY    41  31  67 NW14      30.04R
BURLINGTON     CLOUDY    38  30  75 NW28G33   30.06R WCI  26
KENOSHA        CLOUDY    41  30  65 NW15G25   30.03R
FOND DU LAC    FLURRIES  35  30  82 NW16G23   30.07R WCI  25
SHEBOYGAN      CLOUDY    36  32  85 NW14G21   30.04R WCI  27
WEST BEND      LGT RAIN  36  30  80 NW17G24   30.05R WCI  25
JUNEAU         FLURRIES  34  29  83 NW15G23   30.09S WCI  24
$$

LSZ147-162-311000-
LAKE SUPERIOR

STATION/POSITION TIME  TEMP    WIND        PRES    WAVE
                       AIR SEA DIR/SP/G            HT/PER
                 (UTC) (F)     (DEG/KT/KT) (MB)    (FT/S)
W MID LAKE BUOY  0850   33 44  360/ 25/ 29 1028.5R   9/ 7
DEVILS ISLAND    0900   32      10/ 28/ 33 1031.3R
PORT WING        0800   34     360/ 23/ 31 1030.5R
SAXON HARBOR     0800   36      10/ 24/ 27 1027.8R
$$

LMZ867-665-643>646-311000-
LAKE MICHIGAN

STATION/POSITION TIME  TEMP    WIND        PRES    WAVE
                       AIR SEA DIR/SP/G            HT/PER
                 (UTC) (F)     (DEG/KT/KT) (MB)    (FT/S)
CHAMBERS ISLAND  0800   39     330/ 29/ 35 1016.3R
N MID LAKE BUOY  0850   39 51  350/ 29/ 35 1014.2R   5/ 5
NORTHPORT PIER   0800   38     340/ 38/ 44 1015.6R
KEWAUNEE LAKESHO 0900   36     340/ 20/ 26 1016.2R
SHEBOYGAN LAKESH 0900   38 49  310/ 16/ 20 1017.7R
PORT WASHINGTON  0800   42     320/ 11/ 21 1017.6R
ATWATER BUOY     0900   41     280/ 23/ 27 1017.9R
MILWAUKEE LAKESH 0900   39     320/ 14/ 24   N/A
S MID LAKE BUOY  0850   46 53  310/ 23/ 29 1015.0F   5/ 5
KENOSHA   LAKESH 0900   42     320/ 16/ 24 1016.6R
$$

TC  - TEMPERATURE IN CELSIUS
VSB - VISIBILITY IN STATUTE MILES
WCI - WIND CHILL INDEX
HX  - HEAT INDEX




USA.gov is the U.S. government's official web portal to all federal, state and local government web resources and services.